Tracking 19709 objects as of 20-Jun-2019
HD Live streaming from Space Station
objects crossing your sky now

SL-8 DEB

Track SL-8 DEB now!
10-day predictions


NORAD ID: 21167
Int'l Code: 1991-009AE
Perigee: 1,450.8 km
Apogee: 1,668.2 km
Inclination: 73.9 °
Period: 117.1 minutes
Semi major axis: 7930 km
RCS: 0.0569 m2 (small)
Launch date: February 12, 1991
Source: Commonwealth of Independent States (former USSR) (CIS)
Launch site: PLESETSK MISSILE AND SPACE COMPLEX (PKMTR)

Note: This is SATELLITE DEBRIS
aabbcc
Your satellite tracking list
Your tracking list is empty




NASA's NSSDC Master Catalog

Two Line Element Set (TLE):
1 21167U 91009AE  19170.51470094 -.00000018 +00000-0 -22793-4 0  9992
2 21167 073.9131 182.5240 0137113 170.1249 265.4493 12.29286038269444
Source of the keplerian elements: AFSPC